Regional Weather Roundup
Issued by NWS Sioux Falls, SD

Home | Current Version | Previous Version | Text Only | Print | Product List | Glossary On
Versions: 1 2 3 4 5 6 7 8 9 10 11 12 13 14 15 16 17 18 19 20 21 22 23 24 25 26 27 28 29 30 31 32 33 34 35 36 37 38 39 40 41 42 43 44 45 46 47 48 49 50
000
ASUS43 KFSD 300410
RWRFSD

WEATHER ROUNDUP FOR SE SOUTH DAKOTA/SW MINNESOTA/NW IOWA
NATIONAL WEATHER SERVICE SIOUX FALLS SD
1100 PM CDT SAT AUG 29 2015

NOTE: "FAIR" INDICATES FEW OR NO CLOUDS BELOW 12,000 FEET WITH NO
SIGNIFICANT WEATHER AND OR OBSTRUCTIONS TO VISIBILITY.


SDZ038>040-050-052>070-300500-
SOUTHEAST SOUTH DAKOTA

CITY           SKY/WX    TMP DP  RH WIND       PRES   REMARKS
BROOKINGS      CLEAR     64  61  88 S12       30.01S
CHAMBERLAIN    CLEAR     69  64  83 SE8       29.93S
HURON          CLEAR     68  65  90 S13       29.92F
MADISON        FAIR      64  64 100 S8        30.00S
MITCHELL       CLEAR     69  66  90 SE9       29.96S
SIOUX FALLS    PTCLDY    65  62  90 S8        30.01S
WINNER         FAIR      77  60  55 S17       29.94F
YANKTON        CLEAR     66  63  88 SE8       29.99F
$$

MNZ071-072-080-081-089-090-097-098-300500-
SOUTHWEST MINNESOTA

CITY           SKY/WX    TMP DP  RH WIND       PRES   REMARKS
FAIRMONT       CLEAR     59  54  82 S6        30.04S
JACKSON        CLEAR     63  61  94 S10       30.04S
LUVERNE        CLEAR     63  61  94 S6        30.02F
MARSHALL       CLEAR     64  59  82 S10       30.00S
MONTEVIDEO     CLEAR     66  64  94 S6        29.99S
PIPESTONE      CLEAR     63  63 100 S7        30.02S
REDWOOD FALLS  CLEAR     64  62  93 S9        29.99F
TRACY          PTCLDY    66  64  92 S8        30.00S
WINDOM         CLEAR     64  63  94 S5        30.03S
WORTHINGTON    CLEAR     63  59  88 S9        30.03S
$$

IAZ001>003-012>014-020>022-031-032-NEZ013-014-SDZ071-300500-
NORTHWEST IOWA

CITY           SKY/WX    TMP DP  RH WIND       PRES   REMARKS
CHEROKEE       CLOUDY    63  63  99 S9        30.05S
DENISON        CLOUDY    64  61  88 SE8       30.05F
ESTHERVILLE    FOG       60  60 100 S9        30.04F VSB 3/4
LE MARS        MOCLDY    63  63 100 S5        30.04S
ORANGE CITY    CLEAR     63  61  94 S6        30.04S
SHELDON        CLOUDY    61  61 100 S6        30.02F
SIOUX CITY     NOT AVBL
SPENCER        MOCLDY    61  59  93 S9        30.05S
STORM LAKE     CLOUDY    63  61  94 S8        30.07S
$$

ABBREVIATIONS USED IN REMARKS
   TC - TEMPERATURE IN CELSIUS
  WCI - WIND CHILL INDEX
   HX - HEAT INDEX
  VSB - VISIBILITY



USA.gov is the U.S. government's official web portal to all federal, state and local government web resources and services.